Weather History for Wright-Patt AFB, OH

Change the Weather History Date:

Thursday, November 8, 2012

  Actual Average Record
Temperature  
Mean Temperature 38 °F -  
Max Temperature 51 °F 52 °F 69 °F (2001)
Min Temperature 24 °F 34 °F 24 °F (2003)
Degree Days  
Heating Degree Days 28    
Moisture  
Dew Point 28 °F    
Average Humidity 78    
Maximum Humidity 93    
Minimum Humidity 46    
Precipitation  
Precipitation 0.00 in - - ()
Sea Level Pressure  
Sea Level Pressure 30.21 in    
Wind  
Wind Speed 0 mph (SW)    
Max Wind Speed 6 mph    
Max Gust Speed -    
Visibility 7 miles    
Events Fog    
Averages and records for this station are not official NWS values.
T = Trace of Precipitation, MM = Missing Value Source: NWS Daily Summary

Daily Weather History Graph

Daily Weather History Graph

Search for Another Location

Airport:

Trip Planner

Search our weather history database for the weather conditions in past years. The results will help you decide how hot, cold, wet, or windy it might be!

Date:

Astronomy

Nov. 08, 2012 Rise Set
Actual Time 7:13 AM EST 5:25 PM EST
Civil Twilight 6:44 AM EST 5:54 PM EST
Nautical Twilight 6:12 AM EST 6:26 PM EST
Astronomical Twilight 5:40 AM EST 6:58 PM EST
Moon 1:08 AM EST (11/8) 2:06 PM EST (11/8)
Length of Visible Light 11h 09m
Length of Day
10h 12m
Waning Crescent, 33% of the Moon is Illuminated
Nov 8
Waning Crescent
Nov 13
New
Nov 20
First Quarter
Nov 28
Full
Dec 6
Last Quarter

Hourly Weather History & Observations

Time (EST) Temp. Windchill Dew Point Humidity Pressure Visibility Wind Dir Wind Speed Gust Speed Precip Events Conditions
12:55 AM 33.3 °F - 28.8 °F 84% 30.14 in 10.0 mi Calm Calm - N/A   Clear
1:55 AM 32.0 °F - 28.6 °F 87% 30.15 in 10.0 mi Calm Calm - N/A   Clear
2:55 AM 30.0 °F - 27.0 °F 88% 30.16 in 10.0 mi Calm Calm - N/A   Unknown
3:55 AM 30.6 °F - 27.9 °F 90% 30.17 in 7.0 mi Calm Calm - N/A   Clear
4:55 AM 27.7 °F - 25.0 °F 90% 30.17 in 6.0 mi Calm Calm - N/A   Clear
5:21 AM 28.4 °F - 24.8 °F 86% 30.18 in 0.2 mi Calm Calm - N/A Fog Light Freezing Fog
5:38 AM 26.6 °F - 23.0 °F 86% 30.19 in 6.0 mi Calm Calm - N/A   Mist
5:55 AM 28.0 °F - 24.6 °F 87% 30.20 in 6.0 mi Calm Calm - N/A   Mist
6:06 AM 28.4 °F - 24.8 °F 86% 30.21 in 6.0 mi Calm Calm - N/A   Mist
6:35 AM 26.6 °F - 23.0 °F 86% 30.22 in 3.0 mi Calm Calm - N/A   Mist
6:42 AM 24.8 °F - 23.0 °F 93% 30.22 in 2.5 mi Calm Calm - N/A   Clear
6:45 AM 26.6 °F - 23.0 °F 86% 30.22 in 0.8 mi Calm Calm - N/A   Clear
6:55 AM 26.4 °F - 24.1 °F 91% 30.22 in 1.2 mi Calm Calm - N/A   Clear
7:02 AM 26.6 °F - 24.8 °F 93% 30.22 in 2.5 mi Calm Calm - N/A   Clear
7:55 AM 27.5 °F - 24.4 °F 88% 30.24 in 4.0 mi Calm Calm - N/A   Clear
8:24 AM 30.2 °F - 26.6 °F 86% 30.25 in 4.0 mi Calm Calm - N/A   Clear
8:55 AM 31.8 °F - 28.9 °F 89% 30.26 in 5.0 mi Calm Calm - N/A   Clear
9:12 AM 33.8 °F - 30.2 °F 87% 30.26 in 4.0 mi Calm Calm - N/A   Clear
9:55 AM 37.9 °F - 32.7 °F 81% 30.26 in 4.0 mi Calm Calm - N/A   Clear
10:55 AM 42.6 °F 40.9 °F 34.2 °F 72% 30.26 in 7.0 mi South 3.5 mph - N/A   Clear
11:55 AM 46.0 °F - 33.3 °F 61% 30.25 in 7.0 mi Calm Calm - N/A   Clear
12:55 PM 48.0 °F - 31.1 °F 52% 30.22 in 10.0 mi Calm Calm - N/A   Partly Cloudy
1:55 PM 50.0 °F - 30.6 °F 47% 30.21 in 10.0 mi North 5.8 mph - N/A   Clear
2:55 PM 50.5 °F - 30.4 °F 46% 30.19 in 10.0 mi Calm Calm - N/A   Clear
3:55 PM 51.1 °F - 31.1 °F 46% 30.18 in 10.0 mi SW 5.8 mph - N/A   Partly Cloudy
4:55 PM 48.0 °F - 32.7 °F 55% 30.19 in 10.0 mi SW 5.8 mph - N/A   Partly Cloudy
5:55 PM 42.6 °F 40.9 °F 30.7 °F 63% 30.19 in 10.0 mi SW 3.5 mph - N/A   Clear
6:55 PM 39.7 °F 37.6 °F 30.4 °F 69% 30.20 in 10.0 mi South 3.5 mph - N/A   Clear
7:55 PM 37.0 °F - 31.1 °F 79% 30.20 in 10.0 mi Calm Calm - N/A   Clear
8:55 PM 37.4 °F - 30.0 °F 75% 30.19 in 10.0 mi Calm Calm - N/A   Clear
9:55 PM 34.5 °F - 30.6 °F 85% 30.20 in 10.0 mi Calm Calm - N/A   Clear
10:55 PM 33.8 °F - 29.5 °F 84% 30.19 in 10.0 mi Calm Calm - N/A   Clear
11:55 PM 33.1 °F - 29.7 °F 87% 30.20 in 10.0 mi Calm Calm - N/A   Clear